DLH883 EETN-EDDF

Flight info

Callsign DLH883
Flight time 2h 9m
Altitude 36000
Route LONSA DCT SUVIX DCT PIMEX P739 DEREX DCT KOLJA DCT GOSOT DCT BANUB DCT POVEL DCT RIMET T157 KERAX KERAX5A
Aircraft A320/M-SDE3FGHIRWY/LB1

Departure

Time 2026-05-06 16:41
Airport Lennart Meri Tallinn Airport (EETN)

Arrival

Time 2026-05-06 18:50
Airport Frankfurt Main Airport (EDDF)
Time Latitude Longitude Altitude Speed Heading
2026-05-06 16:25 59.41584 24.80206 162 ft 0 kts
2026-05-06 16:31 59.41569 24.80206 162 ft 4 kts
2026-05-06 16:32 59.41543 24.80200 162 ft 4 kts 31°
2026-05-06 16:32 59.41529 24.80165 162 ft 4 kts 86°
2026-05-06 16:32 59.41529 24.80154 162 ft 0 kts 90°
2026-05-06 16:34 59.41529 24.80186 162 ft 6 kts 91°
2026-05-06 16:34 59.41528 24.80268 162 ft 12 kts 91°
2026-05-06 16:35 59.41518 24.80479 162 ft 19 kts 101°
2026-05-06 16:35 59.41506 24.80757 162 ft 21 kts 90°
2026-05-06 16:35 59.41505 24.81150 162 ft 22 kts 90°
2026-05-06 16:35 59.41505 24.81354 162 ft 23 kts 90°
2026-05-06 16:36 59.41504 24.81673 162 ft 24 kts 90°
2026-05-06 16:36 59.41503 24.82005 162 ft 25 kts 90°
2026-05-06 16:36 59.41502 24.82348 162 ft 26 kts 90°
2026-05-06 16:36 59.41501 24.82702 162 ft 26 kts 90°
2026-05-06 16:37 59.41500 24.83066 162 ft 27 kts 90°
2026-05-06 16:37 59.41499 24.83439 162 ft 28 kts 90°
2026-05-06 16:37 59.41498 24.83815 162 ft 27 kts 90°
2026-05-06 16:37 59.41497 24.84184 162 ft 27 kts 90°
2026-05-06 16:38 59.41497 24.84562 162 ft 28 kts 90°
2026-05-06 16:38 59.41496 24.84948 162 ft 29 kts 90°
2026-05-06 16:38 59.41494 24.85341 162 ft 29 kts 90°
2026-05-06 16:38 59.41493 24.85740 162 ft 29 kts 90°
2026-05-06 16:39 59.41493 24.86139 162 ft 29 kts 90°
2026-05-06 16:39 59.41492 24.86527 162 ft 25 kts 90°
2026-05-06 16:39 59.41443 24.86712 162 ft 15 kts 174°
2026-05-06 16:39 59.41349 24.86708 162 ft 12 kts 181°
2026-05-06 16:40 59.41316 24.86606 161 ft 12 kts 270°
2026-05-06 16:40 59.41317 24.86194 160 ft 62 kts 270°
2026-05-06 16:40 59.41321 24.84922 162 ft 122 kts 270°
2026-05-06 16:40 59.41326 24.82934 164 ft 168 kts 270°
2026-05-06 16:41 59.41327 24.80583 699 ft 171 kts 272°
2026-05-06 16:41 59.41334 24.78247 1391 ft 172 kts 272°
2026-05-06 16:41 59.41057 24.75867 1762 ft 190 kts 244°
2026-05-06 16:41 59.40318 24.73599 2148 ft 204 kts 236°
2026-05-06 16:42 59.39454 24.71274 2569 ft 220 kts 234°
2026-05-06 16:42 59.38501 24.68757 2955 ft 241 kts 234°
2026-05-06 16:42 59.37475 24.66010 3538 ft 254 kts 234°
2026-05-06 16:42 59.36427 24.63144 4215 ft 260 kts 235°
2026-05-06 16:43 59.35380 24.60227 5043 ft 263 kts 235°
2026-05-06 16:43 59.34329 24.57258 5865 ft 267 kts 236°
2026-05-06 16:43 59.33269 24.54241 6648 ft 270 kts 236°
2026-05-06 16:43 59.32196 24.51182 7401 ft 275 kts 236°
2026-05-06 16:44 59.31108 24.48077 8164 ft 278 kts 236°
2026-05-06 16:44 59.30008 24.44926 8920 ft 282 kts 236°
2026-05-06 16:44 59.28895 24.41740 9666 ft 285 kts 236°
2026-05-06 16:44 59.27770 24.38522 10334 ft 292 kts 237°
2026-05-06 16:45 59.26580 24.35119 10645 ft 310 kts 237°
2026-05-06 16:45 59.25373 24.31679 11593 ft 304 kts 237°
2026-05-06 16:45 59.24181 24.28296 12492 ft 300 kts 237°
2026-05-06 16:45 59.23000 24.24955 13326 ft 299 kts 237°
2026-05-06 16:46 59.21821 24.21627 14086 ft 297 kts 237°
2026-05-06 16:46 59.20642 24.18309 14813 ft 297 kts 237°
2026-05-06 16:46 59.19464 24.14992 15503 ft 298 kts 237°
2026-05-06 16:46 59.18284 24.11666 16152 ft 299 kts 237°
2026-05-06 16:47 59.17104 24.08332 16803 ft 299 kts 236°
2026-05-06 16:47 59.15907 24.04954 17236 ft 307 kts 236°
2026-05-06 16:47 59.14677 24.01483 17594 ft 316 kts 236°
2026-05-06 16:47 59.13409 23.97912 17950 ft 325 kts 236°
2026-05-06 16:48 59.12108 23.94261 18307 ft 332 kts 236°
2026-05-06 16:48 59.10796 23.90600 18763 ft 336 kts 235°
2026-05-06 16:48 59.09452 23.86867 19270 ft 338 kts 235°
2026-05-06 16:48 59.08101 23.83106 19748 ft 340 kts 236°
2026-05-06 16:49 59.06811 23.79245 20250 ft 341 kts 238°
2026-05-06 16:49 59.05578 23.75280 20743 ft 343 kts 239°
2026-05-06 16:49 59.04373 23.71275 21216 ft 345 kts 239°
2026-05-06 16:49 59.03166 23.67235 21664 ft 347 kts 239°
2026-05-06 16:50 59.01948 23.63192 22112 ft 348 kts 239°
2026-05-06 16:50 59.00710 23.59139 22554 ft 349 kts 239°
2026-05-06 16:50 58.99459 23.55091 22976 ft 351 kts 239°
2026-05-06 16:50 58.98197 23.51033 23389 ft 353 kts 239°
2026-05-06 16:51 58.96923 23.46955 23791 ft 354 kts 238°
2026-05-06 16:51 58.95643 23.42871 24179 ft 356 kts 238°
2026-05-06 16:51 58.94358 23.38764 24554 ft 357 kts 238°
2026-05-06 16:51 58.93067 23.34632 24917 ft 359 kts 238°
2026-05-06 16:52 58.91768 23.30490 25261 ft 361 kts 238°
2026-05-06 16:52 58.90459 23.26333 25601 ft 363 kts 238°
2026-05-06 16:52 58.89141 23.22158 25941 ft 364 kts 238°
2026-05-06 16:52 58.87818 23.17969 26282 ft 366 kts 238°
2026-05-06 16:53 58.86490 23.13764 26608 ft 368 kts 238°
2026-05-06 16:53 58.85152 23.09535 26920 ft 370 kts 238°
2026-05-06 16:53 58.83808 23.05295 27237 ft 372 kts 238°
2026-05-06 16:53 58.82451 23.01032 27536 ft 373 kts 238°
2026-05-06 16:54 58.81087 22.96762 27827 ft 375 kts 238°
2026-05-06 16:54 58.79714 22.92470 28116 ft 377 kts 238°
2026-05-06 16:54 58.78336 22.88161 28390 ft 378 kts 238°
2026-05-06 16:54 58.76953 22.83840 28674 ft 379 kts 238°
2026-05-06 16:55 58.75566 22.79511 28924 ft 381 kts 238°
2026-05-06 16:55 58.74170 22.75162 29157 ft 383 kts 238°
2026-05-06 16:55 58.72764 22.70796 29399 ft 384 kts 238°
2026-05-06 16:55 58.71351 22.66421 29645 ft 386 kts 238°
2026-05-06 16:56 58.69930 22.62032 29871 ft 387 kts 238°
2026-05-06 16:56 58.68519 22.57688 30083 ft 389 kts 237°
2026-05-06 16:56 58.67060 22.53290 30320 ft 390 kts 237°
2026-05-06 16:56 58.65582 22.48919 30635 ft 389 kts 236°
2026-05-06 16:57 58.64102 22.44581 30950 ft 388 kts 236°
2026-05-06 16:57 58.62624 22.40256 31245 ft 388 kts 236°
2026-05-06 16:57 58.61143 22.35923 31531 ft 388 kts 236°
2026-05-06 16:57 58.59670 22.31606 31821 ft 387 kts 236°
2026-05-06 16:58 58.58195 22.27289 32122 ft 386 kts 236°
2026-05-06 16:58 58.56725 22.22985 32380 ft 386 kts 236°
2026-05-06 16:58 58.55250 22.18674 32650 ft 386 kts 236°
2026-05-06 16:58 58.53779 22.14382 32924 ft 386 kts 236°
2026-05-06 16:59 58.52308 22.10092 33184 ft 385 kts 236°
2026-05-06 16:59 58.50834 22.05806 33449 ft 385 kts 236°
2026-05-06 16:59 58.49362 22.01541 33722 ft 384 kts 236°
2026-05-06 16:59 58.47908 21.97328 33989 ft 383 kts 236°
2026-05-06 17:00 58.46441 21.93076 34236 ft 383 kts 236°
2026-05-06 17:00 58.44973 21.88829 34473 ft 384 kts 236°
2026-05-06 17:00 58.43497 21.84573 34657 ft 385 kts 236°
2026-05-06 17:00 58.42015 21.80311 34856 ft 385 kts 236°
2026-05-06 17:01 58.40534 21.76058 35057 ft 385 kts 236°
2026-05-06 17:01 58.39050 21.71803 35229 ft 386 kts 236°
2026-05-06 17:01 58.37560 21.67544 35400 ft 386 kts 236°
2026-05-06 17:01 58.36068 21.63281 35586 ft 387 kts 236°
2026-05-06 17:02 58.34575 21.59021 35785 ft 387 kts 236°
2026-05-06 17:02 58.33078 21.54767 35946 ft 387 kts 236°
2026-05-06 17:02 58.31577 21.50505 36006 ft 388 kts 236°
2026-05-06 17:03 58.28565 21.41980 35994 ft 388 kts 236°
2026-05-06 17:03 58.25553 21.33473 35980 ft 388 kts 236°
2026-05-06 17:04 58.22540 21.24993 35984 ft 387 kts 236°
2026-05-06 17:04 58.19057 21.17235 35980 ft 388 kts 226°
2026-05-06 17:05 58.15242 21.10016 35976 ft 388 kts 226°
2026-05-06 17:05 58.11424 21.02801 35973 ft 388 kts 226°
2026-05-06 17:06 58.07592 20.95598 35975 ft 388 kts 226°
2026-05-06 17:06 58.03764 20.88405 35975 ft 389 kts 226°
2026-05-06 17:07 57.99928 20.81210 35975 ft 389 kts 226°
2026-05-06 17:07 57.96082 20.74027 35966 ft 390 kts 225°
2026-05-06 17:08 57.92204 20.66841 35960 ft 392 kts 225°
2026-05-06 17:08 57.88334 20.59700 35961 ft 393 kts 225°
2026-05-06 17:09 57.84435 20.52487 35963 ft 394 kts 225°
2026-05-06 17:09 57.80520 20.45278 35966 ft 394 kts 225°
2026-05-06 17:10 57.76600 20.38081 35967 ft 395 kts 225°
2026-05-06 17:10 57.72671 20.30893 35974 ft 395 kts 224°
2026-05-06 17:11 57.68732 20.23730 35984 ft 395 kts 224°
2026-05-06 17:11 57.65032 20.16174 35983 ft 394 kts 229°
2026-05-06 17:12 57.61465 20.08402 35975 ft 394 kts 229°
2026-05-06 17:12 57.57891 20.00662 35972 ft 394 kts 229°
2026-05-06 17:13 57.54307 19.92918 35973 ft 395 kts 229°
2026-05-06 17:13 57.50715 19.85186 35976 ft 395 kts 229°
2026-05-06 17:14 57.47118 19.77467 35982 ft 395 kts 229°
2026-05-06 17:14 57.43517 19.69764 35974 ft 395 kts 228°
2026-05-06 17:15 57.39909 19.62074 35973 ft 395 kts 228°
2026-05-06 17:15 57.36294 19.54381 35974 ft 396 kts 228°
2026-05-06 17:16 57.32675 19.46692 35969 ft 396 kts 228°
2026-05-06 17:16 57.29040 19.39011 35969 ft 397 kts 228°
2026-05-06 17:17 57.25421 19.31393 35970 ft 397 kts 228°
2026-05-06 17:17 57.21769 19.23735 35970 ft 398 kts 228°
2026-05-06 17:18 57.18108 19.16067 35971 ft 398 kts 227°
2026-05-06 17:18 57.14441 19.08414 35975 ft 399 kts 227°
2026-05-06 17:19 57.10756 19.00749 35982 ft 399 kts 227°
2026-05-06 17:19 57.07068 18.93107 35980 ft 400 kts 227°
2026-05-06 17:20 57.03374 18.85471 35979 ft 400 kts 227°
2026-05-06 17:20 56.99661 18.77832 35985 ft 401 kts 227°
2026-05-06 17:21 56.95945 18.70210 35985 ft 401 kts 227°
2026-05-06 17:21 56.92220 18.62596 35981 ft 401 kts 227°
2026-05-06 17:22 56.88508 18.55046 35988 ft 402 kts 227°
2026-05-06 17:22 56.84764 18.47444 35982 ft 403 kts 227°
2026-05-06 17:23 56.81015 18.39842 35982 ft 403 kts 227°
2026-05-06 17:23 56.77258 18.32260 35980 ft 404 kts 227°
2026-05-06 17:24 56.74120 18.25941 35984 ft 404 kts 226°
2026-05-06 17:24 56.70338 18.18346 35980 ft 404 kts 226°
2026-05-06 17:25 56.66550 18.10762 35975 ft 405 kts 226°
2026-05-06 17:25 56.62748 18.03184 35972 ft 406 kts 226°
2026-05-06 17:26 56.58939 17.95605 35970 ft 407 kts 226°
2026-05-06 17:26 56.55110 17.88021 35969 ft 408 kts 226°
2026-05-06 17:27 56.51265 17.80438 35971 ft 409 kts 226°
2026-05-06 17:27 56.47414 17.72856 35975 ft 409 kts 226°
2026-05-06 17:28 56.43553 17.65271 35976 ft 410 kts 226°
2026-05-06 17:28 56.39678 17.57699 35978 ft 411 kts 226°
2026-05-06 17:29 56.35796 17.50133 35987 ft 411 kts 226°
2026-05-06 17:29 56.31909 17.42576 35991 ft 411 kts 226°
2026-05-06 17:30 56.28022 17.35038 35993 ft 411 kts 225°
2026-05-06 17:30 56.24129 17.27515 35990 ft 411 kts 225°
2026-05-06 17:31 56.20224 17.20001 35993 ft 411 kts 225°
2026-05-06 17:31 56.16313 17.12503 35992 ft 412 kts 225°
2026-05-06 17:32 56.12397 17.05012 35991 ft 412 kts 225°
2026-05-06 17:32 56.08497 16.97577 35985 ft 412 kts 225°
2026-05-06 17:33 56.04537 16.90054 35985 ft 413 kts 225°
2026-05-06 17:33 56.00618 16.82643 35983 ft 413 kts 225°
2026-05-06 17:34 55.96555 16.75348 35977 ft 415 kts 223°
2026-05-06 17:34 55.92352 16.68285 35971 ft 416 kts 222°
2026-05-06 17:35 55.88124 16.61231 35969 ft 416 kts 222°
2026-05-06 17:35 55.83909 16.54135 35972 ft 418 kts 222°
2026-05-06 17:36 55.77582 16.43453 35972 ft 418 kts 222°
2026-05-06 17:36 55.73357 16.36337 35973 ft 419 kts 222°
2026-05-06 17:37 55.69123 16.29237 35973 ft 419 kts 222°
2026-05-06 17:37 55.64870 16.22156 35970 ft 419 kts 222°
2026-05-06 17:38 55.60622 16.15081 35967 ft 419 kts 222°
2026-05-06 17:38 55.56401 16.08068 35967 ft 419 kts 222°
2026-05-06 17:39 55.52145 16.01027 35968 ft 420 kts 222°
2026-05-06 17:39 55.47881 15.93993 35965 ft 419 kts 222°
2026-05-06 17:40 55.43612 15.86974 35964 ft 420 kts 222°
2026-05-06 17:40 55.39341 15.79980 35961 ft 419 kts 222°
2026-05-06 17:41 55.35067 15.72994 35962 ft 419 kts 222°
2026-05-06 17:41 55.30796 15.66040 35963 ft 419 kts 222°
2026-05-06 17:42 55.26523 15.59103 35963 ft 418 kts 222°
2026-05-06 17:42 55.22255 15.52186 35963 ft 418 kts 222°
2026-05-06 17:43 55.17983 15.45289 35964 ft 417 kts 222°
2026-05-06 17:43 55.13713 15.38425 35969 ft 417 kts 222°
2026-05-06 17:44 55.09464 15.31633 35970 ft 416 kts 222°
2026-05-06 17:44 55.05200 15.24807 35969 ft 416 kts 222°
2026-05-06 17:45 55.00942 15.17994 35966 ft 415 kts 222°
2026-05-06 17:45 54.96671 15.11218 35963 ft 415 kts 222°
2026-05-06 17:46 54.92407 15.04460 35962 ft 414 kts 222°
2026-05-06 17:46 54.88148 14.97719 35961 ft 414 kts 222°
2026-05-06 17:47 54.83882 14.91012 35959 ft 413 kts 222°
2026-05-06 17:47 54.79619 14.84321 35956 ft 413 kts 223°
2026-05-06 17:48 54.75438 14.77492 35954 ft 413 kts 224°
2026-05-06 17:48 54.71295 14.70591 35954 ft 413 kts 224°
2026-05-06 17:49 54.67137 14.63722 35953 ft 413 kts 223°
2026-05-06 17:49 54.62966 14.56895 35947 ft 413 kts 223°
2026-05-06 17:50 54.58784 14.50093 35943 ft 413 kts 223°
2026-05-06 17:50 54.54587 14.43302 35934 ft 414 kts 223°
2026-05-06 17:51 54.50393 14.36509 35930 ft 414 kts 223°
2026-05-06 17:51 54.46188 14.29715 35928 ft 415 kts 223°
2026-05-06 17:52 54.41974 14.22952 35928 ft 414 kts 223°
2026-05-06 17:52 54.37759 14.16218 35923 ft 414 kts 223°
2026-05-06 17:53 54.33539 14.09488 35919 ft 414 kts 223°
2026-05-06 17:53 54.29315 14.02778 35914 ft 414 kts 223°
2026-05-06 17:54 54.25085 13.96073 35914 ft 414 kts 223°
2026-05-06 17:54 54.20880 13.89427 35914 ft 414 kts 223°
2026-05-06 17:55 54.16634 13.82749 35913 ft 415 kts 223°
2026-05-06 17:55 54.12393 13.76083 35910 ft 415 kts 223°
2026-05-06 17:56 54.08154 13.69425 35909 ft 414 kts 223°
2026-05-06 17:56 54.03909 13.62797 35907 ft 414 kts 223°
2026-05-06 17:57 53.99654 13.56181 35905 ft 414 kts 223°
2026-05-06 17:57 53.95404 13.49574 35906 ft 414 kts 223°
2026-05-06 17:58 53.91147 13.42990 35907 ft 414 kts 223°
2026-05-06 17:58 53.86886 13.36423 35902 ft 414 kts 223°
2026-05-06 17:59 53.82628 13.29873 35896 ft 414 kts 223°
2026-05-06 17:59 53.78371 13.23322 35893 ft 414 kts 223°
2026-05-06 18:00 53.74108 13.16781 35891 ft 414 kts 222°
2026-05-06 18:00 53.69833 13.10267 35891 ft 414 kts 222°
2026-05-06 18:01 53.65562 13.03768 35890 ft 414 kts 222°
2026-05-06 18:01 53.61287 12.97278 35890 ft 414 kts 222°
2026-05-06 18:02 53.57003 12.90799 35893 ft 414 kts 222°
2026-05-06 18:02 53.52716 12.84336 35893 ft 414 kts 222°
2026-05-06 18:03 53.48455 12.77923 35890 ft 414 kts 222°
2026-05-06 18:03 53.44166 12.71492 35886 ft 413 kts 222°
2026-05-06 18:04 53.39875 12.65067 35883 ft 413 kts 222°
2026-05-06 18:04 53.35578 12.58650 35883 ft 414 kts 221°
2026-05-06 18:05 53.31279 12.52249 35883 ft 414 kts 221°
2026-05-06 18:05 53.26978 12.45869 35881 ft 413 kts 221°
2026-05-06 18:06 53.22675 12.39510 35879 ft 413 kts 221°
2026-05-06 18:06 53.18366 12.33173 35863 ft 413 kts 221°
2026-05-06 18:07 53.14064 12.26842 35857 ft 413 kts 221°
2026-05-06 18:07 53.09745 12.20488 35865 ft 413 kts 221°
2026-05-06 18:08 53.05455 12.14210 35865 ft 412 kts 221°
2026-05-06 18:08 53.01150 12.07929 35879 ft 411 kts 221°
2026-05-06 18:09 52.96881 12.01719 35865 ft 410 kts 221°
2026-05-06 18:09 52.92590 11.95504 35859 ft 410 kts 221°
2026-05-06 18:10 52.88297 11.89283 35846 ft 410 kts 221°
2026-05-06 18:10 52.83996 11.83072 35848 ft 410 kts 221°
2026-05-06 18:11 52.80391 11.77883 35843 ft 410 kts 221°
2026-05-06 18:11 52.75386 11.70703 35838 ft 410 kts 221°
2026-05-06 18:12 52.71811 11.65583 35835 ft 410 kts 221°
2026-05-06 18:12 52.67503 11.59430 35837 ft 410 kts 221°
2026-05-06 18:13 52.63197 11.53292 35835 ft 409 kts 221°
2026-05-06 18:13 52.58854 11.47126 35828 ft 409 kts 221°
2026-05-06 18:14 52.54567 11.41065 35826 ft 409 kts 221°
2026-05-06 18:14 52.50249 11.34973 35820 ft 409 kts 220°
2026-05-06 18:15 52.45927 11.28882 35816 ft 409 kts 221°
2026-05-06 18:15 52.41603 11.22806 35813 ft 410 kts 220°
2026-05-06 18:16 52.37273 11.16732 35812 ft 410 kts 220°
2026-05-06 18:16 52.32932 11.10658 35813 ft 410 kts 220°
2026-05-06 18:17 52.28592 11.04598 35811 ft 410 kts 220°
2026-05-06 18:17 52.24245 10.98559 35804 ft 410 kts 220°
2026-05-06 18:18 52.19889 10.92530 35799 ft 411 kts 220°
2026-05-06 18:18 52.15529 10.86498 35798 ft 411 kts 220°
2026-05-06 18:19 52.10841 10.81193 35796 ft 413 kts 207°
2026-05-06 18:19 52.05658 10.77158 35794 ft 413 kts 207°
2026-05-06 18:20 52.00461 10.73141 35796 ft 414 kts 206°
2026-05-06 18:20 51.95259 10.69123 35802 ft 414 kts 207°
2026-05-06 18:21 51.90066 10.65103 35804 ft 413 kts 207°
2026-05-06 18:21 51.84876 10.61095 35807 ft 413 kts 207°
2026-05-06 18:22 51.79680 10.57097 35804 ft 414 kts 206°
2026-05-06 18:22 51.74480 10.53120 35804 ft 414 kts 206°
2026-05-06 18:23 51.69276 10.49146 35807 ft 414 kts 206°
2026-05-06 18:23 51.64073 10.45173 35806 ft 414 kts 206°
2026-05-06 18:24 51.58900 10.41224 35629 ft 415 kts 206°
2026-05-06 18:24 51.56296 10.39242 35323 ft 415 kts 206°
2026-05-06 18:24 51.53649 10.37234 34722 ft 414 kts 206°
2026-05-06 18:25 51.51029 10.35251 34061 ft 413 kts 206°
2026-05-06 18:25 51.48485 10.33327 33406 ft 412 kts 206°
2026-05-06 18:25 51.45860 10.31343 32712 ft 411 kts 206°
2026-05-06 18:25 51.43310 10.29417 32120 ft 409 kts 206°
2026-05-06 18:26 51.40756 10.27489 31611 ft 403 kts 206°
2026-05-06 18:26 51.38237 10.25591 31106 ft 398 kts 206°
2026-05-06 18:26 51.35718 10.23818 30586 ft 393 kts 201°
2026-05-06 18:26 51.33102 10.22591 30078 ft 390 kts 194°
2026-05-06 18:27 51.30425 10.21962 29571 ft 388 kts 187°
2026-05-06 18:27 51.27730 10.21848 29042 ft 386 kts 184°
2026-05-06 18:27 51.25054 10.21805 28494 ft 383 kts 184°
2026-05-06 18:27 51.22398 10.21753 27925 ft 381 kts 184°
2026-05-06 18:28 51.19755 10.21693 27358 ft 379 kts 184°
2026-05-06 18:28 51.17128 10.21630 26784 ft 376 kts 184°
2026-05-06 18:28 51.14551 10.21205 26225 ft 370 kts 197°
2026-05-06 18:28 51.12204 10.19655 25659 ft 364 kts 212°
2026-05-06 18:29 51.10051 10.17543 25042 ft 363 kts 213°
2026-05-06 18:29 51.07920 10.15410 24466 ft 361 kts 213°
2026-05-06 18:29 51.05803 10.13275 23890 ft 360 kts 213°
2026-05-06 18:29 51.03692 10.11144 23325 ft 358 kts 213°
2026-05-06 18:30 51.01575 10.09012 22666 ft 360 kts 213°
2026-05-06 18:30 50.99483 10.06917 22297 ft 353 kts 213°
2026-05-06 18:30 50.97442 10.04884 21896 ft 348 kts 213°
2026-05-06 18:30 50.95401 10.02853 21467 ft 345 kts 213°
2026-05-06 18:31 50.93369 10.00866 21041 ft 342 kts 212°
2026-05-06 18:31 50.91335 9.98947 20605 ft 339 kts 211°
2026-05-06 18:31 50.89304 9.97069 20158 ft 337 kts 211°
2026-05-06 18:31 50.87287 9.95210 19718 ft 335 kts 211°
2026-05-06 18:32 50.85276 9.93355 19267 ft 333 kts 211°
2026-05-06 18:32 50.83277 9.91510 18829 ft 332 kts 211°
2026-05-06 18:32 50.81291 9.89664 18380 ft 330 kts 212°
2026-05-06 18:32 50.79316 9.87817 17942 ft 329 kts 212°
2026-05-06 18:33 50.77352 9.85978 17499 ft 328 kts 212°
2026-05-06 18:33 50.75396 9.84151 17071 ft 326 kts 212°
2026-05-06 18:33 50.73448 9.82338 16643 ft 325 kts 211°
2026-05-06 18:33 50.71506 9.80535 16217 ft 323 kts 211°
2026-05-06 18:34 50.69567 9.78736 15792 ft 323 kts 211°
2026-05-06 18:34 50.67633 9.76947 15372 ft 322 kts 211°
2026-05-06 18:34 50.65700 9.75166 14950 ft 322 kts 211°
2026-05-06 18:34 50.63771 9.73391 14529 ft 321 kts 211°
2026-05-06 18:35 50.61849 9.71621 14103 ft 320 kts 211°
2026-05-06 18:35 50.59930 9.69845 13679 ft 320 kts 212°
2026-05-06 18:35 50.58022 9.68061 13244 ft 319 kts 212°
2026-05-06 18:35 50.56116 9.66268 12809 ft 319 kts 212°
2026-05-06 18:36 50.54214 9.64482 12363 ft 318 kts 212°
2026-05-06 18:36 50.52313 9.62699 11918 ft 318 kts 212°
2026-05-06 18:36 50.50441 9.60945 11464 ft 318 kts 212°
2026-05-06 18:36 50.48692 9.58784 11006 ft 316 kts 226°
2026-05-06 18:37 50.47383 9.56078 10796 ft 316 kts 240°
2026-05-06 18:37 50.46517 9.52905 10802 ft 318 kts 253°
2026-05-06 18:37 50.45893 9.49567 10772 ft 318 kts 253°
2026-05-06 18:37 50.45195 9.46256 10192 ft 321 kts 244°
2026-05-06 18:38 50.43943 9.43450 10034 ft 310 kts 227°
2026-05-06 18:38 50.42489 9.41037 9906 ft 299 kts 227°
2026-05-06 18:38 50.41078 9.38720 9776 ft 288 kts 226°
2026-05-06 18:38 50.39705 9.36482 9518 ft 283 kts 226°
2026-05-06 18:39 50.38346 9.34276 9177 ft 281 kts 226°
2026-05-06 18:39 50.36992 9.32080 8812 ft 279 kts 226°
2026-05-06 18:39 50.35646 9.29902 8456 ft 277 kts 226°
2026-05-06 18:40 50.32968 9.25560 7961 ft 276 kts 226°
2026-05-06 18:40 50.31634 9.23399 7710 ft 275 kts 227°
2026-05-06 18:40 50.30305 9.21250 7458 ft 274 kts 226°
2026-05-06 18:40 50.28980 9.19111 7207 ft 273 kts 227°
2026-05-06 18:41 50.27662 9.16984 6956 ft 272 kts 227°
2026-05-06 18:41 50.26347 9.14864 6706 ft 271 kts 227°
2026-05-06 18:41 50.25034 9.12752 6446 ft 272 kts 226°
2026-05-06 18:41 50.23719 9.10649 6196 ft 270 kts 227°
2026-05-06 18:42 50.22419 9.08561 5946 ft 268 kts 227°
2026-05-06 18:42 50.21124 9.06483 5689 ft 266 kts 227°
2026-05-06 18:42 50.19827 9.04406 5443 ft 268 kts 227°
2026-05-06 18:42 50.18537 9.02338 5197 ft 264 kts 226°
2026-05-06 18:43 50.17253 9.00296 5027 ft 264 kts 227°
2026-05-06 18:43 50.15993 8.98272 4992 ft 251 kts 227°
2026-05-06 18:43 50.14871 8.96319 4996 ft 232 kts 238°
2026-05-06 18:43 50.14207 8.94093 5005 ft 226 kts 251°
2026-05-06 18:44 50.13673 8.91799 5008 ft 224 kts 251°
2026-05-06 18:44 50.13154 8.89579 5006 ft 211 kts 251°
2026-05-06 18:44 50.12667 8.87505 5020 ft 195 kts 251°
2026-05-06 18:44 50.12208 8.85555 4862 ft 189 kts 251°
2026-05-06 18:45 50.11760 8.83650 4627 ft 187 kts 251°
2026-05-06 18:45 50.11315 8.81762 4369 ft 186 kts 251°
2026-05-06 18:45 50.10871 8.79876 4112 ft 185 kts 251°
2026-05-06 18:45 50.10578 8.78632 3943 ft 184 kts 251°
2026-05-06 18:46 50.09986 8.76127 3597 ft 184 kts 251°
2026-05-06 18:46 50.09547 8.74263 3330 ft 183 kts 251°
2026-05-06 18:46 50.09108 8.72414 3077 ft 182 kts 252°
2026-05-06 18:46 50.08672 8.70581 2816 ft 179 kts 252°
2026-05-06 18:47 50.08246 8.68793 2565 ft 176 kts 252°
2026-05-06 18:47 50.07826 8.67013 2320 ft 172 kts 252°
2026-05-06 18:47 50.07422 8.65312 2085 ft 164 kts 252°
2026-05-06 18:47 50.07043 8.63712 1904 ft 150 kts 253°
2026-05-06 18:48 50.06691 8.62241 1697 ft 143 kts 252°
2026-05-06 18:48 50.06346 8.60796 1448 ft 140 kts 252°
2026-05-06 18:48 50.06016 8.59410 1216 ft 137 kts 253°
2026-05-06 18:48 50.05690 8.58032 1024 ft 137 kts 252°
2026-05-06 18:49 50.05360 8.56631 853 ft 139 kts 252°
2026-05-06 18:49 50.05019 8.55197 668 ft 140 kts 251°
2026-05-06 18:49 50.04683 8.53786 471 ft 141 kts 251°
2026-05-06 18:49 50.04337 8.52359 352 ft 131 kts 251°
2026-05-06 18:50 50.04079 8.51263 330 ft 85 kts 249°
2026-05-06 18:50 50.03908 8.50563 322 ft 50 kts 247°
2026-05-06 18:50 50.03739 8.50250 318 ft 23 kts 219°
2026-05-06 18:50 50.03662 8.50180 322 ft 7 kts 183°
2026-05-06 18:51 50.03637 8.50200 323 ft 3 kts 138°
2026-05-06 18:51 50.03625 8.50256 324 ft 8 kts 87°
2026-05-06 18:51 50.03650 8.50376 326 ft 15 kts 69°
2026-05-06 18:51 50.03692 8.50551 329 ft 17 kts 70°
2026-05-06 18:52 50.03733 8.50723 332 ft 18 kts 69°
2026-05-06 18:52 50.03785 8.50938 333 ft 23 kts 69°
2026-05-06 18:52 50.03842 8.51176 333 ft 24 kts 70°
2026-05-06 18:52 50.03901 8.51423 335 ft 25 kts 69°
2026-05-06 18:53 50.03962 8.51678 337 ft 25 kts 69°
2026-05-06 18:53 50.04024 8.51937 337 ft 26 kts 69°
2026-05-06 18:53 50.04086 8.52196 342 ft 25 kts 70°
2026-05-06 18:53 50.04148 8.52454 346 ft 25 kts 69°
2026-05-06 18:54 50.04207 8.52702 352 ft 25 kts 69°
2026-05-06 18:54 50.04267 8.52952 358 ft 25 kts 69°
2026-05-06 18:54 50.04326 8.53198 367 ft 23 kts 69°
2026-05-06 18:54 50.04383 8.53437 373 ft 25 kts 70°
2026-05-06 18:55 50.04408 8.53703 375 ft 25 kts 84°
2026-05-06 18:55 50.04427 8.53984 375 ft 26 kts 84°
2026-05-06 18:55 50.04446 8.54275 375 ft 28 kts 84°
2026-05-06 18:55 50.04436 8.54564 368 ft 29 kts 111°
2026-05-06 18:56 50.04384 8.54691 362 ft 14 kts 133°
2026-05-06 18:56 50.04333 8.54754 358 ft 2 kts 147°
2026-05-06 18:56 50.04332 8.54755 358 ft 0 kts 147°
2026-05-06 18:58 50.04325 8.54762 361 ft 4 kts 147°
2026-05-06 18:58 50.04281 8.54791 361 ft 11 kts 160°
2026-05-06 18:58 50.04183 8.54844 358 ft 17 kts 160°
2026-05-06 18:58 50.04063 8.54913 357 ft 19 kts 159°
2026-05-06 18:59 50.03941 8.54987 355 ft 20 kts 159°
2026-05-06 18:59 50.03848 8.55065 355 ft 14 kts 116°
2026-05-06 18:59 50.03871 8.55209 358 ft 14 kts 69°
2026-05-06 18:59 50.03908 8.55361 354 ft 16 kts 70°
2026-05-06 19:00 50.03947 8.55526 354 ft 17 kts 70°
2026-05-06 19:00 50.03985 8.55687 357 ft 14 kts 70°
2026-05-06 19:00 50.04013 8.55802 350 ft 9 kts 70°
2026-05-06 19:00 50.04029 8.55869 354 ft 3 kts 69°
2026-05-06 19:01 50.04034 8.55889 350 ft 1 kts 69°
2026-05-06 19:01 50.04034 8.55890 350 ft 0 kts 69°
2026-05-06 19:07 50.04035 8.55895 350 ft 2 kts 70°
2026-05-06 19:07 50.04043 8.55928 356 ft 5 kts 69°
2026-05-06 19:07 50.04078 8.55975 354 ft 8 kts
2026-05-06 19:07 50.04147 8.55940 357 ft 13 kts 340°
2026-05-06 19:08 50.04235 8.55933 354 ft 14 kts 29°
2026-05-06 19:08 50.04331 8.55936 359 ft 16 kts 339°
2026-05-06 19:08 50.04439 8.55916 360 ft 16 kts 13°
2026-05-06 19:08 50.04533 8.55961 359 ft 9 kts 21°
2026-05-06 19:09 50.04598 8.55970 362 ft 10 kts 343°
2026-05-06 19:09 50.04647 8.55942 358 ft 3 kts 339°